Tracking 26321 objects as of 28-Nov-2022
HD Live streaming from Space Station
objects crossing your sky now

NOAA 16 DEB

Track NOAA 16 DEB now!
10-day predictions


NORAD ID: 41264
Int'l Code: 2000-055FQ
Perigee: 847.4 km
Apogee: 851.5 km
Inclination: 98.7 °
Period: 101.8 minutes
Semi major axis: 7220 km
RCS: Unknown
Launch date: September 21, 2000
Source: United States (US)
Launch site: AIR FORCE WESTERN TEST RANGE (AFWTR)

Note: This is SATELLITE DEBRIS
aabbcc
Your satellite tracking list
Your tracking list is empty




NASA's NSSDC Master Catalog

Two Line Element Set (TLE):
1 41264U 00055FQ  22330.87803647  .00001812  00000-0  95827-3 0  9996
2 41264  98.7150  29.1628 0002853 223.0349 137.0602 14.15001962357427
Source of the keplerian elements: AFSPC